[[{"header":{"parameterUnit":"m.s-1","parameterCategory":1,"la1":30.2992,"la2":30.254,"lo1":-89.0895,"lo2":-89.0443,"dy":0.0025,"dx":0.0025,"nx":19,"ny":19,"refTime":"2026-05-13T03:00:00:Z","depth":0,"parameterNumber":2,"parameterNumberName":"U-component_of_WINDS"},"data":[0,0,0,2.0186,2.0187,2.0249,2.0249,2.0334,2.0334,0,0,0,0,0,0,0,0,0,0,0,2.0171,2.0172,2.0185,2.0187,2.0249,2.0249,2.0333,2.0334,0,0,0,0,0,0,0,0,0,0,0,2.0171,2.0172,2.0173,2.0187,2.0249,2.0249,2.0333,2.0284,0,0,0,0,0,0,0,0,0,0,2.0223,2.0215,2.0172,2.0173,2.0188,2.0249,2.0249,2.0282,2.0288,2.0308,0,2.0329,0,2.0333,2.0341,2.0341,0,0,0,2.0184,2.021,2.0223,2.0173,2.0188,2.0249,2.022,2.0285,2.0291,2.0316,2.033,2.0333,2.0334,2.0341,2.0342,2.0475,2.0476,0,0,2.018,2.0185,2.0219,2.0227,2.0219,2.0218,2.0222,2.0289,2.0304,2.033,2.0335,2.0336,2.0342,2.0342,2.0475,2.0475,0,0,0,2.0173,2.0182,2.0194,2.0224,2.0235,2.022,2.0224,2.0301,2.0304,2.0336,2.0337,2.0342,2.0343,2.0474,2.0475,2.0519,0,0,0,2.0171,2.0178,2.0192,2.0196,2.0234,2.0269,2.0236,2.03,2.0307,2.0336,2.0342,2.0344,2.0473,2.0474,2.0516,2.0538,0,0,0,2.0166,2.0177,2.0188,2.0196,2.0223,2.0268,2.0275,2.0301,2.0308,2.0341,2.0345,2.0472,2.0474,2.0513,2.0534,2.0575,0,0,0,2.0162,2.0225,2.0189,2.026,2.0222,2.0295,2.0274,2.0328,2.0361,2.0343,2.0473,2.0475,2.0512,2.0531,2.0572,2.0611,2.0628,0,0,2.0244,2.0235,2.0277,2.0246,2.0326,2.0285,2.0371,2.0397,2.0395,2.0449,2.0452,2.0517,2.0534,2.0575,2.0718,2.0732,0,0,0,2.0304,2.0334,2.0354,2.0387,2.0409,2.0429,2.0441,2.0451,2.0496,2.0424,2.0542,2.0552,2.0576,2.0595,2.0606,2.0626,2.0483,2.0483,2.0483,2.0426,2.0422,2.049,2.0494,2.0525,2.0538,2.0563,2.0577,2.0563,2.0591,2.0607,2.0695,2.0716,2.0725,2.0746,2.0627,2.0627,2.0627,2.0627,2.0546,2.0588,2.0568,2.0628,2.0622,2.0672,2.0686,2.0674,2.0719,2.0682,2.0703,2.0664,2.0739,2.0757,2.063,2.063,2.0629,2.0629,2.0629,2.0626,2.0646,2.0657,2.0704,2.074,2.074,2.0785,2.0778,2.0772,2.0792,2.0808,2.0808,2.0806,2.0801,2.0801,2.0801,2.0801,2.0802,2.0802,2.0705,2.0716,2.0755,2.0784,2.0804,2.083,2.0843,2.0862,2.0881,2.0873,2.0873,2.0856,2.0748,2.0721,2.0807,2.0806,2.0805,2.0805,2.0804,2.0829,2.08,2.086,2.088,2.0913,2.095,2.0941,2.0981,2.0996,2.1018,2.0996,2.0917,2.0907,2.0898,2.0876,2.0997,2.0997,2.0997,2.0997,2.0896,2.0891,2.0951,2.0984,2.1015,2.1013,2.108,2.1091,2.1097,2.1106,2.1087,2.1057,2.1048,2.1044,2.1031,2.1011,2.1163,2.1163,2.1163,2.0972,2.097,2.1029,2.1035,2.1061,2.1083,2.1146,2.1184,2.1185,2.117,2.1113,2.1106,2.1057,2.1041,2.1025,2.1006,2.0968,0,0]},{"header":{"parameterUnit":"m.s-1","parameterCategory":1,"la1":30.2992,"la2":30.254,"lo1":-89.0895,"lo2":-89.0443,"dy":0.0025,"dx":0.0025,"nx":19,"ny":19,"refTime":"2026-05-13T03:00:00:Z","depth":0,"parameterNumber":3,"parameterNumberName":"V-component_of_WINDS"},"data":[0,0,0,-0.9372,-0.9372,-0.9418,-0.9418,-0.9472,-0.9472,0,0,0,0,0,0,0,0,0,0,0,-0.9356,-0.9356,-0.9371,-0.9373,-0.9418,-0.9418,-0.9472,-0.9472,0,0,0,0,0,0,0,0,0,0,0,-0.9356,-0.9356,-0.9356,-0.9373,-0.9418,-0.9418,-0.9472,-0.9439,0,0,0,0,0,0,0,0,0,0,-0.9396,-0.9379,-0.9356,-0.9356,-0.9373,-0.9418,-0.9418,-0.9438,-0.9441,-0.945,0,-0.9457,0,-0.9466,-0.9476,-0.9476,0,0,0,-0.9374,-0.9376,-0.939,-0.9356,-0.9373,-0.9417,-0.9398,-0.944,-0.9444,-0.9455,-0.9458,-0.946,-0.9466,-0.9476,-0.9476,-0.9521,-0.9522,0,0,-0.9372,-0.9363,-0.9387,-0.9393,-0.9385,-0.9396,-0.9399,-0.9442,-0.9445,-0.9458,-0.9461,-0.9467,-0.9476,-0.9477,-0.9521,-0.9521,0,0,0,-0.9363,-0.9361,-0.9374,-0.939,-0.9399,-0.9398,-0.9401,-0.9443,-0.9448,-0.9462,-0.9468,-0.9477,-0.9477,-0.9521,-0.9521,-0.9518,0,0,0,-0.9362,-0.9356,-0.9373,-0.9368,-0.9398,-0.9421,-0.9401,-0.9445,-0.945,-0.9468,-0.9477,-0.9478,-0.9521,-0.9521,-0.9518,-0.9518,0,0,0,-0.9354,-0.9355,-0.9361,-0.9367,-0.9386,-0.9421,-0.9429,-0.9447,-0.9454,-0.9476,-0.9478,-0.9521,-0.9521,-0.9518,-0.9518,-0.9527,0,0,0,-0.9342,-0.9357,-0.9361,-0.938,-0.9386,-0.9419,-0.9428,-0.9454,-0.9472,-0.9477,-0.9521,-0.9521,-0.9518,-0.9518,-0.9527,-0.9532,-0.9534,0,0,-0.9356,-0.9359,-0.9371,-0.9375,-0.9405,-0.9413,-0.9443,-0.9468,-0.9479,-0.9507,-0.9508,-0.9518,-0.9518,-0.9527,-0.9548,-0.9549,0,0,0,-0.9372,-0.9381,-0.9391,-0.9408,-0.9429,-0.9446,-0.9468,-0.9478,-0.9502,-0.9491,-0.9525,-0.9525,-0.953,-0.9534,-0.9535,-0.954,-0.9523,-0.9523,-0.9523,-0.9379,-0.9392,-0.9413,-0.9431,-0.9448,-0.9471,-0.9486,-0.9503,-0.9511,-0.9519,-0.9527,-0.9538,-0.9542,-0.9542,-0.9548,-0.9532,-0.9532,-0.9532,-0.9532,-0.94,-0.9414,-0.9425,-0.9449,-0.9463,-0.9484,-0.9507,-0.9513,-0.9534,-0.9533,-0.9539,-0.9536,-0.9543,-0.9549,-0.9532,-0.9532,-0.9532,-0.9532,-0.9532,-0.9405,-0.9414,-0.9426,-0.9452,-0.9471,-0.949,-0.951,-0.9522,-0.9534,-0.954,-0.9549,-0.9549,-0.9551,-0.9544,-0.9544,-0.9544,-0.9544,-0.9544,-0.9544,-0.9405,-0.9418,-0.9433,-0.9457,-0.947,-0.9488,-0.9512,-0.9526,-0.9543,-0.955,-0.9551,-0.9558,-0.9542,-0.9537,-0.9544,-0.9544,-0.9544,-0.9544,-0.9544,-0.942,-0.9419,-0.9442,-0.9455,-0.9484,-0.9502,-0.9518,-0.9544,-0.9556,-0.9566,-0.9573,-0.9559,-0.9563,-0.9562,-0.9558,-0.957,-0.957,-0.957,-0.957,-0.9423,-0.9427,-0.9454,-0.9474,-0.9495,-0.9511,-0.9538,-0.9557,-0.9577,-0.9586,-0.9586,-0.9583,-0.9581,-0.9586,-0.9584,-0.9581,-0.9598,-0.9598,-0.9598,-0.9433,-0.9439,-0.9459,-0.9478,-0.9502,-0.9522,-0.9547,-0.957,-0.9593,-0.96,-0.9593,-0.9592,-0.9586,-0.9584,-0.9589,-0.9587,-0.9581,0,0]}]]